Regional Weather Roundup
Issued by NWS New Orleans/Baton Rouge, LA

Home | Current Version | Previous Version | Text Only | Print | Product List | Glossary Off
Versions: 1 2 3 4 5 6 7 8 9 10 11 12 13 14 15 16 17 18 19 20 21 22 23 24 25 26 27 28 29 30 31 32 33 34 35 36 37 38 39 40 41 42 43 44 45 46 47 48 49 50

977
ASUS44 KLIX 230710
RWRLIX
NEW ORLEANS REGIONAL WEATHER ROUNDUP
NATIONAL WEATHER SERVICE NEW ORLEANS LA
200 AM CDT SAT AUG 23 2014

NOTE: "FAIR" INDICATES FEW OR NO CLOUDS BELOW 12,000 FEET WITH NO
      SIGNIFICANT WEATHER AND/OR OBSTRUCTIONS TO VISIBILITY.
      SKY/WX - SKY CONDITION AND SIGNIFICANT WEATHER.
      TMP - AIR TEMPERATURE.     DP    - DEWPOINT TEMPERATURE.
      RH  - RELATIVE HUMIDITY.   PRES  - PRESSURE.
      HI  - HEAT INDEX.          WCI   - WIND CHILL INDEX.

*  THESE STATIONS ARE NOT NWS OR FAA STATIONS AND ARE NOT UNDER
   NWS QUALITY CONTROL.

LAZ038-040-048-061>063-065>067-069-230800-
SOUTHEAST LOUISIANA

CITY           SKY/WX    TMP DP  RH WIND       PRES   REMARKS
N.O. AUDUBON     N/A     82  78  89 MISG        N/A
N.O. INTL ARPT PTCLDY    82  76  81 SW8       30.01F
N.O. LAKEFRONT CLEAR     84  76  76 SW8       30.01F
N.O. DOWNTOWN*   N/A     84  73  70 SW3       30.02F
SLIDELL        CLEAR     78  74  87 CALM      30.00F
BATON ROUGE    CLEAR     79  75  87 CALM      30.01F
BOOTHVILLE     CLEAR     83  77  82 W3        30.01F
BELLE CHASSE   CLEAR     79  75  87 CALM      30.01F
BOGALUSA*        N/A     79  74  84 CALM      30.02S
GALLIANO*      NOT AVBL
NEW ROADS*       N/A     76  75  98 CALM      30.01F
GONZALES*        N/A     79  79 100 CALM      30.01S
HAMMOND*       CLEAR     79  73  83 CALM      30.02S
HOUMA*         FOG       76  73  88 CALM      30.02S VSB 3/4
PORT FOURCHON* MOSUNNY   86  75  70 CALM      30.03F HX  95

$$

MSZ070-080>082-230800-
SOUTHERN MISSISSIPPI

CITY           SKY/WX    TMP DP  RH WIND       PRES   REMARKS
MCCOMB         CLEAR     77  74  90 CALM      30.02F
GULFPORT       CLEAR     80  76  87 CALM      29.99F
BILOXI         CLEAR     82  77  83 CALM      29.99F
PASCAGOULA     CLEAR     76  75  97 CALM      29.99F FOG

$$

COASTAL OBSERVATIONS
LAKE AND NEARSHORE STATIONS

STATION/POSITION TIME  TEMP    WIND        PRES    WAVE
                       AIR SEA DIR/SP/G            HT/PER
                 (UTC) (F)     (DEG/KT/KT) (MB)    (FT/S)
PASCAGOULA       0700   87     260/  8/ 10 1015.2
WAVELAND YACHT   0700   84     240/  5/  6 1015.2
GRAND ISLE       0700   85 90  250/  4/  6 1016.9
SOUTHWEST PASS   0700   85 88  220/  3/  5 1016.6
NEW CANAL        0700   84 86  230/  4/  6 1016.6
SHELL BEACH      0700   82 82  250/  6/  7 1016.1

OFFSHORE STATIONS

STATION/POSITION TIME  TEMP    WIND        PRES    WAVE
                       AIR SEA DIR/SP/G            HT/PER
                 (UTC) (F)     (DEG/KT/KT) (MB)    (FT/S)
64 S DAUPHIN ISL 0638   86 89  270/  8/ 10 1016.3

$$




USA.gov is the U.S. government's official web portal to all federal, state and local government web resources and services.